This demonstration page uses our WeatherBlox Daily Observations layout. Learn more.

Left ArrowRight Arrow

41.12389, -100.76542

Hourly Observations for March 11, 2020

Temp ( °F °C ) Dew Point ( °F °C ) Humidity (%) Winds ( mph kmh ) Pressure ( in mb ) Visibility ( mi km ) Precip ( " mm )
12:34 am 00:34 Clear with Mist and Fog 34 1.1 31 -0.6 89 89 NE 3 6 30.17 1022 3 4 0.00 0.00
12:41 am 00:41 Clear 31 -0.6 29 -1.7 92 92 NE 5 7 30.18 1022 10 16 0.00 0.00
12:53 am 00:53 Clear 31 -0.6 29 -1.7 92 92 Calm 30.10 1019 10 16 0.00 0.00
1:53 am 01:53 Clear 29 -1.7 25 -3.9 85 85 Calm 30.08 1019 10 16 0.00 0.00
2:16 am 02:16 Partly Cloudy 28 -2.2 25 -3.9 88 88 Calm 30.18 1022 10 16 0.00 0.00
2:25 am 02:25 Mostly Cloudy 29 -1.7 25 -3.9 85 85 Calm 30.17 1022 10 16 0.00 0.00
2:29 am 02:29 Mostly Cloudy with Haze 29 -1.7 24 -4.4 82 82 Calm 30.17 1022 2 2 0.00 0.00
2:31 am 02:31 Mostly Cloudy with Mist and Fog 28 -2.2 24 -4.4 85 85 Calm 30.18 1022 1 1 0.00 0.00
2:50 am 02:50 Mostly Cloudy with Freezing Fog 30 -1 28 -2 93 93 Calm 30.16 1021 0 0 0.00 0.00
2:53 am 02:53 Mostly Cloudy with Freezing Fog 30 -1.1 27 -2.8 88 88 WNW 3 6 30.06 1018 0 0 0.00 0.00
3:43 am 03:43 Mostly Cloudy with Freezing Fog 31 -0.6 29 -1.7 92 92 Calm 30.15 1021 1 1 0.00 0.00
3:53 am 03:53 Mostly Cloudy with Fog 32 0 30 -1.1 92 92 Calm 30.05 1018 1 1 0.00 0.00
4:16 am 04:16 Mostly Cloudy with Fog 32 0 30 -1.1 92 92 Calm 30.13 1020 0 0 0.00 0.00
4:53 am 04:53 Mostly Cloudy with Fog 33 0.6 31 -0.6 92 92 N 3 6 30.02 1017 0 0 0.00 0.00
5:30 am 05:30 Mostly Cloudy with Freezing Fog 30 -1.1 28 -2.2 92 92 NW 6 9 30.13 1020 1 1 0.00 0.00
5:43 am 05:43 Mostly Cloudy with Freezing Fog 30 -1.1 28 -2.2 92 92 undefined N/A 30.14 1021 1 1 0.00 0.00
5:53 am 05:53 Mostly Cloudy with Freezing Fog 30 -1.1 28 -2.2 92 92 NNW 3 6 30.03 1017 1 1 0.00 0.00
6:13 am 06:13 Mostly Cloudy with Freezing Fog 30 -1.1 28 -2.2 92 92 N 5 7 30.14 1021 0 0 0.00 0.00
6:26 am 06:26 Mostly Cloudy with Freezing Fog 30 -1.1 27 -2.8 88 88 Calm 30.14 1021 1 1 0.00 0.00
6:53 am 06:53 Mostly Cloudy with Freezing Fog 28 -2.2 26 -3.3 92 92 VRB 3 6 30.04 1017 1 1 0.00 0.00
7:00 am 07:00 Mostly Cloudy with Freezing Fog 28 -2.2 26 -3.3 92 92 NNW 5 7 30.15 1021 0 0 0.00 0.00
7:08 am 07:08 Mostly Cloudy with Freezing Fog 28 -2.2 25 -3.9 88 88 N 3 6 30.15 1021 1 1 0.00 0.00
7:32 am 07:32 Mostly Cloudy with Mist and Fog 27 -2.8 24 -4.4 89 89 Calm 30.17 1022 1 2 0.00 0.00
7:40 am 07:40 Mostly Cloudy with Mist and Fog 26 -3.3 24 -4.4 92 92 NNW 5 7 30.16 1021 1 1 0.00 0.00
7:53 am 07:53 Cloudy with Mist and Fog 27 -2.8 24 -4.4 89 89 Calm 30.04 1017 2 3 0.00 0.00
8:00 am 08:00 Cloudy with Mist and Fog 26 -3.3 24 -4.4 92 92 Calm 30.16 1021 6 10 0.00 0.00
8:41 am 08:41 Partly Cloudy 27 -2.8 23 -5 85 85 Calm 30.15 1021 10 16 0.00 0.00
8:53 am 08:53 Sunny 30 -1.1 26 -3.3 85 85 Calm 30.05 1018 10 16 0.00 0.00
9:53 am 09:53 Sunny 33 0.6 32 0 96 96 Calm 30.04 1017 10 16 0.00 0.00
10:53 am 10:53 Sunny 47 8.3 35 1.7 63 63 WNW 9 15 30.02 1017 10 16 0.00 0.00
11:53 am 11:53 Sunny 58 14.4 35 1.7 42 42 W 7 11 29.97 1015 10 16 0.00 0.00
12:53 pm 12:53 Sunny 69 20.6 31 -0.6 24 24 W 16 26 29.91 1013 10 16 0.00 0.00
1:53 pm 13:53 Sunny 71 21.7 27 -2.8 19 19 W 21 33 29.88 1012 10 16 0.00 0.00
2:53 pm 14:53 Sunny 71 21.7 28 -2.2 20 20 WNW 20 31 29.83 1010 10 16 0.00 0.00
3:53 pm 15:53 Sunny 71 21.7 28 -2.2 20 20 W 21 33 29.78 1009 10 16 0.00 0.00
4:53 pm 16:53 Sunny 73 22.8 28 -2.2 19 19 WNW 17 28 29.75 1008 10 16 0.00 0.00
5:53 pm 17:53 Partly Cloudy 73 22.8 28 -2.2 19 19 WNW 21 33 29.73 1007 10 16 0.00 0.00
6:53 pm 18:53 Sunny 70 21.1 28 -2.2 21 21 W 10 17 29.72 1007 10 16 0.00 0.00
7:53 pm 19:53 Clear 60 15.6 26 -3.3 27 27 WSW 7 11 29.73 1007 10 16 0.00 0.00
8:53 pm 20:53 Clear 57 13.9 26 -3.3 30 30 SSW 7 11 29.71 1006 10 16 0.00 0.00
9:53 pm 21:53 Clear 54 12.2 28 -2.2 37 37 SSW 6 9 29.71 1006 10 16 0.00 0.00
10:53 pm 22:53 Mostly Cloudy 60 15.6 31 -0.6 33 33 SSW 16 26 29.65 1004 10 16 0.00 0.00
11:36 pm 23:36 Mostly Cloudy 56 13.3 32 0 40 40 NW 9 15 29.65 1004 10 16 0.00 0.00
11:53 pm 23:53 Mostly Cloudy 55 12.8 32 0 42 42 WNW 3 6 29.65 1004 10 16 0.00 0.00

Powered by AerisWeather